This demonstration page uses our WeatherBlox Daily Observations layout. Learn more.

Left ArrowRight Arrow

36.17497, -115.13722

Hourly Observations for February 28, 2020

Temp ( °F °C ) Dew Point ( °F °C ) Humidity (%) Winds ( mph kmh ) Pressure ( in mb ) Visibility ( mi km ) Precip ( " mm )
12:53 am 00:53 Clear 53 11.7 24 -4.4 32 32 Calm 30.3 1026 10 16.0934 0 0
1:53 am 01:53 Clear 54 12.2 24 -4.4 31 31 SW 3 6 30.29 1026 10 16.0934 0 0
2:53 am 02:53 Clear 51 10.6 26 -3.3 38 38 NW 3 6 30.29 1026 10 16.0934 0 0
3:53 am 03:53 Clear 50 10 25 -3.9 38 38 WNW 6 9 30.29 1026 10 16.0934 0 0
4:53 am 04:53 Clear 51 10.6 24 -4.4 35 35 NW 8 13 30.28 1025 10 16.0934 0 0
5:53 am 05:53 Clear 51 10.6 25 -3.9 36 36 Calm 30.29 1026 10 16.0934 0 0
6:53 am 06:53 Sunny 50 10 26 -3.3 39 39 Calm 30.3 1026 10 16.0934 0 0
7:53 am 07:53 Sunny 53 11.7 27 -2.8 37 37 Calm 30.32 1027 10 16.0934 0 0
8:53 am 08:53 Sunny 57 13.9 25 -3.9 29 29 Calm 30.33 1027 10 16.0934 0 0
9:53 am 09:53 Sunny 61 16.1 23 -5 23 23 Calm 30.32 1027 10 16.0934 0 0
10:53 am 10:53 Sunny 64 17.8 24 -4.4 22 22 Calm 30.3 1026 10 16.0934 0 0
11:53 am 11:53 Sunny 65 18.3 23 -5 20 20 SE 6 9 30.27 1025 10 16.0934 0 0
12:53 pm 12:53 Sunny 67 19.4 21 -6.1 17 17 Calm 30.23 1024 10 16.0934 0 0
1:53 pm 13:53 Sunny 68 20 21 -6.1 17 17 E 8 13 30.2 1023 10 16.0934 0 0
2:53 pm 14:53 Sunny 69 20.6 19 -7.2 15 15 ESE 8 13 30.19 1023 10 16.0934 0 0
3:53 pm 15:53 Sunny 69 20.6 19 -7.2 15 15 VRB 3 6 30.18 1022 10 16.0934 0 0
4:53 pm 16:53 Sunny 68 20 21 -6.1 17 17 E 5 7 30.16 1022 10 16.0934 0 0
5:53 pm 17:53 Clear 67 19.4 21 -6.1 17 17 S 3 6 30.16 1022 10 16.0934 0 0
6:53 pm 18:53 Clear 63 17.2 23 -5 22 22 Calm 30.17 1022 10 16.0934 0 0
7:53 pm 19:53 Clear 59 15 25 -3.9 27 27 NNW 6 9 30.17 1022 10 16.0934 0 0
8:53 pm 20:53 Clear 57 13.9 26 -3.3 30 30 W 5 7 30.17 1022 10 16.0934 0 0
9:53 pm 21:53 Clear 55 12.8 25 -3.9 31 31 WNW 5 7 30.16 1021 10 16.0934 0 0
10:53 pm 22:53 Clear 52 11.1 26 -3.3 37 37 NW 3 6 30.14 1021 10 16.0934 0 0
11:53 pm 23:53 Clear 50 10 26 -3.3 39 39 NW 7 11 30.12 1020 10 16.0934 0 0

Powered by AerisWeather